Weather History for Idabel, OK

Change the Weather History Date:

Monday, May 20, 2013

  Actual Average (KDEQ) Record (KDEQ)
Temperature  
Mean Temperature 76 °F 71 °F  
Max Temperature 86 °F 82 °F 94 °F (2005)
Min Temperature 66 °F 60 °F 43 °F (1981)
Degree Days  
Heating Degree Days 0 0  
Month to date heating degree days 21  
Since 1 July heating degree days 3042  
Cooling Degree Days 11 6  
Month to date cooling degree days 87  
Year to date cooling degree days 134  
Growing Degree Days 26 (Base 50)    
Moisture  
Dew Point 66 °F    
Average Humidity 71    
Maximum Humidity 83    
Minimum Humidity 55    
Precipitation  
Precipitation 0.00 in 0.16 in 2.60 in (1903)
Month to date precipitation 4.07  
Year to date precipitation 19.64  
Snow  
Snow 0.00 in - - ()
Month to date snowfall  
Since 1 July snowfall  
Snow Depth -    
Sea Level Pressure  
Sea Level Pressure 29.81 in    
Wind  
Wind Speed 12 mph (SSE)    
Max Wind Speed 20 mph    
Max Gust Speed 28 mph    
Visibility 10 miles    
Events      
T = Trace of Precipitation, MM = Missing Value Source: NWS Daily Summary

Daily Weather History Graph

Daily Weather History Graph

Search for Another Location

Airport:

Trip Planner

Search our weather history database for the weather conditions in past years. The results will help you decide how hot, cold, wet, or windy it might be!

Date:

Astronomy

May. 20, 2013 Rise Set
Actual Time 6:14 AM CDT 8:17 PM CDT
Civil Twilight 5:46 AM CDT 8:45 PM CDT
Nautical Twilight 5:12 AM CDT 9:19 PM CDT
Astronomical Twilight 4:36 AM CDT 9:56 PM CDT
Moon 3:38 PM CDT (5/20) 2:56 AM CDT (5/20)
Length of Visible Light 14h 58m
Length of Day
14h 02m
Waxing Gibbous, 75% of the Moon is Illuminated
May 20
Waxing Gibbous
May 24
Full
May 31
Last Quarter
Jun 8
New
Jun 16
First Quarter

Hourly Weather History & Observations

Time (CDT) Temp. Heat Index Dew Point Humidity Pressure Visibility Wind Dir Wind Speed Gust Speed Precip Events Conditions
12:15 AM 77.0 °F - 64.4 °F 65% 29.78 in 10.0 mi South 15.0 mph 25.3 mph N/A   Clear
12:35 AM 75.2 °F - 64.4 °F 69% 29.78 in 10.0 mi South 16.1 mph 25.3 mph N/A   Clear
12:55 AM 75.2 °F - 64.4 °F 69% 29.78 in 10.0 mi South 19.6 mph 27.6 mph N/A   Clear
1:15 AM 75.2 °F - 64.4 °F 69% 29.78 in 10.0 mi South 16.1 mph 25.3 mph N/A   Clear
1:35 AM 73.4 °F - 64.4 °F 73% 29.79 in 10.0 mi South 11.5 mph 18.4 mph N/A   Clear
1:55 AM 73.4 °F - 64.4 °F 73% 29.79 in 10.0 mi South 12.7 mph 19.6 mph N/A   Clear
2:15 AM 73.4 °F - 64.4 °F 73% 29.79 in 10.0 mi South 12.7 mph - N/A   Clear
2:35 AM 73.4 °F - 64.4 °F 73% 29.80 in 10.0 mi South 6.9 mph - N/A   Clear
3:15 AM 71.6 °F - 64.4 °F 78% 29.81 in 10.0 mi South 6.9 mph - N/A   Scattered Clouds
3:35 AM 71.6 °F - 64.4 °F 78% 29.81 in 10.0 mi South 6.9 mph - N/A   Mostly Cloudy
3:55 AM 71.6 °F - 64.4 °F 78% 29.80 in 10.0 mi South 9.2 mph - N/A   Overcast
4:35 AM 71.6 °F - 64.4 °F 78% 29.81 in 10.0 mi South 6.9 mph - N/A   Overcast
4:55 AM 71.6 °F - 64.4 °F 78% 29.82 in 10.0 mi South 6.9 mph - N/A   Overcast
5:15 AM 71.6 °F - 64.4 °F 78% 29.82 in 10.0 mi South 10.4 mph - N/A   Overcast
5:35 AM 71.6 °F - 64.4 °F 78% 29.82 in 10.0 mi SSE 8.1 mph - N/A   Overcast
5:55 AM 71.6 °F - 64.4 °F 78% 29.84 in 10.0 mi SSE 6.9 mph - N/A   Overcast
6:15 AM 71.6 °F - 64.4 °F 78% 29.84 in 10.0 mi SSE 5.8 mph - N/A   Overcast
6:55 AM 71.6 °F - 64.4 °F 78% 29.85 in 10.0 mi SE 5.8 mph - N/A   Overcast
7:15 AM 71.6 °F - 64.4 °F 78% 29.86 in 10.0 mi SE 6.9 mph - N/A   Overcast
7:35 AM 71.6 °F - 66.2 °F 83% 29.87 in 10.0 mi SE 5.8 mph - N/A   Overcast
7:55 AM 71.6 °F - 66.2 °F 83% 29.87 in 10.0 mi SE 5.8 mph - N/A   Mostly Cloudy
8:15 AM 73.4 °F - 66.2 °F 78% 29.88 in 10.0 mi SSE 8.1 mph - N/A   Mostly Cloudy
8:35 AM 73.4 °F - 68.0 °F 83% 29.88 in 10.0 mi SSE 8.1 mph - N/A   Overcast
8:55 AM 73.4 °F - 68.0 °F 83% 29.88 in 10.0 mi SSE 9.2 mph - N/A   Overcast
9:15 AM 75.2 °F - 68.0 °F 78% 29.88 in 10.0 mi South 12.7 mph - N/A   Mostly Cloudy
9:35 AM 77.0 °F - 68.0 °F 74% 29.88 in 10.0 mi South 13.8 mph 19.6 mph N/A   Mostly Cloudy
9:55 AM 77.0 °F - 68.0 °F 74% 29.87 in 10.0 mi South 12.7 mph 21.9 mph N/A   Mostly Cloudy
10:35 AM 77.0 °F - 68.0 °F 74% 29.87 in 10.0 mi South 12.7 mph 18.4 mph N/A   Mostly Cloudy
10:55 AM 77.0 °F - 68.0 °F 74% 29.87 in 10.0 mi South 12.7 mph 20.7 mph N/A   Mostly Cloudy
11:15 AM 78.8 °F - 68.0 °F 69% 29.87 in 10.0 mi South 11.5 mph 19.6 mph N/A   Mostly Cloudy
11:35 AM 78.8 °F - 68.0 °F 69% 29.87 in 10.0 mi South 11.5 mph - N/A   Mostly Cloudy
11:55 AM 80.6 °F 83.2 °F 68.0 °F 65% 29.86 in 10.0 mi South 16.1 mph - N/A   Scattered Clouds
12:15 PM 80.6 °F 83.2 °F 68.0 °F 65% 29.85 in 10.0 mi South 13.8 mph 21.9 mph N/A   Scattered Clouds
12:35 PM 80.6 °F 83.2 °F 68.0 °F 65% 29.85 in 10.0 mi South 13.8 mph - N/A   Scattered Clouds
12:55 PM 80.6 °F 83.2 °F 68.0 °F 65% 29.85 in 7.0 mi South 11.5 mph - N/A   Scattered Clouds
1:15 PM 80.6 °F 83.2 °F 68.0 °F 65% 29.84 in 7.0 mi South 12.7 mph 21.9 mph N/A   Scattered Clouds
1:35 PM 82.4 °F 85.4 °F 68.0 °F 62% 29.83 in 10.0 mi SSE 13.8 mph 20.7 mph N/A   Clear
1:55 PM 82.4 °F 85.4 °F 68.0 °F 62% 29.83 in 7.0 mi South 16.1 mph 24.2 mph N/A   Scattered Clouds
2:15 PM 84.2 °F 87.3 °F 68.0 °F 58% 29.82 in 7.0 mi South 17.3 mph - N/A   Scattered Clouds
2:35 PM 86.0 °F 90.4 °F 69.8 °F 58% 29.81 in 7.0 mi SSE 12.7 mph 16.1 mph N/A   Scattered Clouds
2:55 PM 86.0 °F 89.4 °F 68.0 °F 55% 29.80 in 7.0 mi SSE 13.8 mph 23.0 mph N/A   Scattered Clouds
3:15 PM 84.2 °F 87.3 °F 68.0 °F 58% 29.79 in 7.0 mi South 12.7 mph - N/A   Scattered Clouds
3:35 PM 86.0 °F 89.4 °F 68.0 °F 55% 29.78 in 7.0 mi South 15.0 mph 23.0 mph N/A   Scattered Clouds
3:55 PM 86.0 °F 90.4 °F 69.8 °F 58% 29.76 in 10.0 mi South 15.0 mph 24.2 mph N/A   Clear
4:15 PM 86.0 °F 89.4 °F 68.0 °F 55% 29.75 in 10.0 mi South 16.1 mph 21.9 mph N/A   Clear
4:35 PM 84.2 °F 87.3 °F 68.0 °F 58% 29.76 in 10.0 mi South 15.0 mph - N/A   Scattered Clouds
4:55 PM 86.0 °F 89.4 °F 68.0 °F 55% 29.75 in 10.0 mi South 13.8 mph 20.7 mph N/A   Clear
5:15 PM 82.4 °F 85.4 °F 68.0 °F 62% 29.75 in 10.0 mi SSE 12.7 mph 17.3 mph N/A   Clear
5:35 PM 82.4 °F 85.4 °F 68.0 °F 62% 29.75 in 10.0 mi South 11.5 mph 17.3 mph N/A   Clear
5:55 PM 82.4 °F 85.4 °F 68.0 °F 62% 29.75 in 10.0 mi South 8.1 mph - N/A   Clear
6:15 PM 82.4 °F 85.4 °F 68.0 °F 62% 29.74 in 10.0 mi South 11.5 mph - N/A   Clear
6:35 PM 80.6 °F 83.2 °F 68.0 °F 65% 29.73 in 10.0 mi SSE 10.4 mph - N/A   Clear
6:55 PM 80.6 °F 83.2 °F 68.0 °F 65% 29.74 in 10.0 mi South 6.9 mph - N/A   Clear
7:15 PM 80.6 °F 83.2 °F 68.0 °F 65% 29.74 in 10.0 mi South 6.9 mph - N/A   Clear
7:35 PM 78.8 °F - 68.0 °F 69% 29.75 in 10.0 mi South 9.2 mph - N/A   Clear
7:55 PM 78.8 °F - 68.0 °F 69% 29.76 in 10.0 mi South 5.8 mph - N/A   Clear
8:15 PM 77.0 °F - 68.0 °F 74% 29.76 in 10.0 mi SSE 8.1 mph - N/A   Clear
8:35 PM 78.8 °F - 68.0 °F 69% 29.78 in 10.0 mi SSW 5.8 mph - N/A   Scattered Clouds
9:15 PM 77.0 °F - 68.0 °F 74% 29.79 in 10.0 mi Calm Calm - N/A   Clear
9:35 PM 77.0 °F - 68.0 °F 74% 29.82 in 10.0 mi NNW 13.8 mph 19.6 mph N/A   Mostly Cloudy
9:55 PM 71.6 °F - 60.8 °F 69% 29.83 in 10.0 mi North 19.6 mph 24.2 mph N/A   Mostly Cloudy
10:15 PM 68.0 °F - 60.8 °F 78% 29.84 in 10.0 mi NNE 6.9 mph 11.5 mph N/A   Mostly Cloudy
10:35 PM 66.2 °F - 60.8 °F 83% 29.84 in 10.0 mi NE 6.9 mph - N/A   Mostly Cloudy
10:55 PM 66.2 °F - 60.8 °F 83% 29.85 in 10.0 mi ENE 4.6 mph - N/A   Scattered Clouds
11:15 PM 66.2 °F - 60.8 °F 83% 29.87 in 10.0 mi ENE 3.5 mph - N/A   Mostly Cloudy
11:35 PM 66.2 °F - 60.8 °F 83% 29.83 in 10.0 mi East 12.7 mph - N/A   Scattered Clouds
11:55 PM 66.2 °F - 60.8 °F 83% 29.83 in 10.0 mi East 9.2 mph - N/A   Clear